Погода в Карауле

Погода в Карауле : погода сейчас, прогноз погоды и архив. Всё, что Вы хотите узнать о погоде в Карауле!

Поиск расширенной информации на нашем сайте:

Другие новости

Новости СМИ2

Главная страница сайта

Новости сайта

03.07.2017

Напоминаем, что на нашем специализированном сайте Метеоцентр.Азия вы можете получить высокодетализированные автоматические прогнозы погоды по пунктам России, СНГ и мира в авиационном формате (включающие направление и скорость ветра, видимость, явления погоды, количество и форму облачности, нижнюю и верхнюю границу облачности).


Погода в Карауле - сегодня

Время (UTC), дата Ветер
(°,м/с) 
Видим.   Явления Облачность Т
(°С)
Тd
(°С)
f(%) Тe
(°С)
Pmin
(гПа)
dP
(гПа)
Po
(мм)
O2
(г/м3)
Тmin Tmax R s Состояние
почвы
00 20.07.17 050 (СВ) 20000 м    1/1 600 м 
[Cu hum]
+15.9 +10.6 71 +18  1018  0.8  761  288  +15.7         
03 20.07.17 050 (СВ) 20000 м    ясно 
+16.4 +11.1 71 +18  1018.1  0.1  761  287           
06 20.07.17 050 (СВ) 20000 м    ясно 
+18.4 +12.1 67 +22  1019  0.9  762  285           
09 20.07.17 360 (С) 20000 м    ясно 
+20.6 +12.6 60 +25  1019.1  0.1  762  283           
12 20.07.17 360 (С) 20000 м    ясно 
+21.5 +12.5 57 +26  1017.3  -1.8  760  282    +21.8       
15 20.07.17 020 (С) 20000 м    ясно 
+20.9 +12.4 58 +25  1017.1  -0.2  760  282           
18 20.07.17 020 (С) 20000 м    ясно 
+19.2 +12.6 66 +24  1017.1  760  284           
21 20.07.17 020 (С) 20000 м    4/0 верхняя 
[Ci fib]
+15.8 +11.3 75 +19  1017.1  760  287           
00 21.07.17 020 (С) 20000 м    4/0 верхняя 
[Ci fib]
+17.9 +14 78 +26  1017.1  760  285  +15.6         
03 21.07.17 180 (Ю) 20000 м    4/0 верхняя 
[Ci fib]
+18.1 +13.5 74 +25  1017.1  760  285           
06 21.07.17 180 (Ю) 20000 м    ясно 
+20.6 +14.9 70 +29  1018.7  1.6  761  282           
09 21.07.17 180 (Ю) 20000 м    ясно 
+23.4 +17.1 68 +35  1018.7  0.1  762  279           
12 21.07.17 тихо ()   20000 м    ясно 
+25.1 +18 65 +39  1018.7  762  277    +25.3       
15 21.07.17 140 (ЮВ) 20000 м    ясно 
+24.5 +18.2 68 +39  1018.7  762  277           
21 21.07.17 140 (ЮВ) 20000 м    ясно 
+16 +11.2 73 +19  1018.8  762  288           
00 22.07.17 140 (ЮВ) 20000 м    ясно 
+17.2 +12.7 75 +23  1018.8  762  286  +15.7         
03 22.07.17 250 (З) 20000 м    ясно 
+20.4 +13.8 66 +27  1018.8  762  283           
06 22.07.17 270 (З) 20000 м    ясно 
+24.5 +17.3 64 +37  1018.9  0.1  762  278           
09 22.07.17 320 (СЗ) 20000 м    1/1 1000 м 
[Cu hum]
+26.4 +13.3 44 +32  1018.9  0.1  762  277           
12 22.07.17 340 (С) 20000 м    4/1 1000 м верхняя 
[Cu hum|Ci fib]
+26.8 +13.8 45 +33  1018  -0.9  761  277    +27.5       
15 22.07.17 тихо ()   20000 м    3/3 1000 м 
[Cu hum]
+24.8 +18 66 +39  1017.2  -0.8  760  277           
18 22.07.17 тихо ()   20000 м    1/0 верхняя 
[Ci fib]
+21.1 +17 77 +33  1017.6  0.4  761  281           
21 22.07.17 тихо ()   20000 м    1/0 верхняя 
[Ci fib]
+16 +15.1 94 +24  1017.6  -0.1  761  286           
00 23.07.17 300 (СЗ) 20000 м    ясно 
+18 +15.8 87 +29  1017.7  0.1  761  284  +15.8         
03 23.07.17 340 (С) 20000 м    ясно 
+21.9 +16.9 73 +34  1017.7  0.1  761  280           
Время (UTC), дата Ветер
(°,м/с) 
Видим.   Явления Облачность Т
(°С)
Тd
(°С)
f(%) Тe
(°С)
Pmin
(гПа)
dP
(гПа)
Po
(мм)
O2
(г/м3)
Тmin Tmax R s Состояние
почвы

Для получения пояснительной информации подведите курсор к названию столбца.

ПОГОДА в Карауле - архив

Всё, что Вы хотите узнать о погоде в Карауле - удобно и подробно!

Выберите нужную дату (начиная с 1 января 2015* года) и нажмите кнопку "Найти".
Будут отображены архивные сводки погоды по пункту Караул, начиная с указанной даты.


Отображать данные в формате CSV (для использования в таблицах Excel)


Внимание! Наш архив погоды предназначен исключительно для личного некоммерческого использования в познавательных целях. Если Вам необходимы официальные справки о состоянии погоды (для производственных, юридических, коммерческих и т.п. целей), обращайтесь в органы Росгидромета.

*Примечание: данная дата относится к архиву по метеостанциям СССР (Россия, СНГ, Балтия).
Архив по метеостанциям Зарубежной Европы и Азии (кроме Китая) хранится 10 дней, по другим регионам земного шара (Китай, Африка, Америка, Австралия, Океания) - 1 день.

Караул - район местоположения метеостанции


Название, широта, долгота, высота метеостанции:
Караул 70.2°ш. 83.1°д. 29 м над ур. моря [Российская Федерация]

Дополнительная информация

В oтличие oт бoльшинства пoгoдных сайтoв мы публикуем пoдрoбную метеoинфoрмацию в детальнoм прoфессиoнальнoм фoрмате.

Характеристики температуры и влажнoсти вoздуха измеряются на высoте 2 м в тени вдали oт зданий и деревьев.
Скoрoсть ветра измеряется на высoте 10 м (на урoвне рoста челoвека скoрoсть ветра ниже в 1.5-2 раза). Если метеoстанция нахoдится в гoрoде или в лесу, тo скoрoсть ветра занижена на 2-4 м/с пo сравнению с oткрытым местoм. Скoрoсть ветра над акватoриями крупных рек и oзёр, а также на вершинах хoлмoв на 2-5 м/с выше, чем в oбычных услoвиях.
Атмoсфернoе давление в разных тoчках местнoсти мoжет значительнo oтличаться oт давления на метеoстанции, в зависимoсти oт услoвий рельефа (при пoдъёме на 10 м давление пoнижается примернo на 1 мм рт.ст.).